Location: ??
(34.7252°N, 135.5457°E)
Time: 18:03:03
(UTC+00:00)

USA 267 - Pass Details

Date: 24 September 2020
Orbit: 1101 x 1106 km, 123.0° (Epoch: 22 September)

Event Time Altitude Azimuth Distance (km) Brightness Sun altitude
Rises 18:30:58 0° 36° (NE) 3,921 7.0 -28.4°
Reaches altitude 10° 18:33:37 10° 29° (NNE) 2,962 6.1 -27.9°
Maximum altitude 18:39:32 38° 324° (NW) 1,608 3.9 -26.8°
Enters shadow 18:40:14 37° 310° (NW) 1,633 3.9 -26.6°
